Time,TemperatureF,DewpointF,PressureIn,WindDirection,WindDirectionDegrees,WindSpeedMPH,WindSpeedGustMPH,Humidity,HourlyPrecipIn,Conditions,Clouds,dailyrainin,SoftwareType,DateUTC
2013-01-10 00:02:00,50.0,30.0,30.28,East,90,14.0,22.0,46,-99.99,,,-99.99,,2013-01-10 06:02:00,
2013-01-10 00:12:00,50.0,30.0,30.27,East,95,18.0,24.0,46,-99.99,,,-99.99,,2013-01-10 06:12:00,
2013-01-10 00:22:00,50.0,30.0,30.27,East,95,18.0,24.0,46,-99.99,,,-99.99,,2013-01-10 06:22:00,
2013-01-10 00:30:00,47.0,32.0,30.25,East,95,14.0,23.0,56,-99.99,,,-99.99,,2013-01-10 06:30:00,
2013-01-10 00:32:00,49.0,31.0,30.27,ESE,110,17.0,24.0,49,-99.99,,,-99.99,,2013-01-10 06:32:00,
2013-01-10 00:42:00,49.0,32.0,30.26,East,100,13.0,24.0,51,-99.99,,,-99.99,,2013-01-10 06:42:00,
2013-01-10 00:52:00,49.0,32.0,30.26,East,100,13.0,24.0,51,-99.99,,,-99.99,,2013-01-10 06:52:00,
2013-01-10 01:02:00,48.0,32.0,30.26,East,90,18.0,24.0,52,-99.99,,,-99.99,,2013-01-10 07:02:00,
2013-01-10 01:12:00,47.0,32.0,30.25,East,95,14.0,23.0,56,-99.99,,,-99.99,,2013-01-10 07:12:00,
2013-01-10 01:22:00,47.0,32.0,30.25,East,95,14.0,23.0,56,-99.99,,,-99.99,,2013-01-10 07:22:00,
2013-01-10 02:02:00,47.0,33.0,30.24,East,95,14.0,24.0,57,-99.99,,,-99.99,,2013-01-10 08:02:00,
2013-01-10 02:12:00,47.0,33.0,30.23,ESE,105,19.0,24.0,57,-99.99,,,-99.99,,2013-01-10 08:12:00,
2013-01-10 02:22:00,47.0,33.0,30.23,ESE,105,19.0,24.0,57,-99.99,,,-99.99,,2013-01-10 08:22:00,
2013-01-10 02:32:00,47.0,33.0,30.23,East,95,15.0,22.0,60,-99.99,,,-99.99,,2013-01-10 08:32:00,
2013-01-10 02:42:00,46.0,33.0,30.21,East,85,15.0,24.0,60,-99.99,,,-99.99,,2013-01-10 08:42:00,
2013-01-10 02:52:00,46.0,33.0,30.21,East,85,15.0,24.0,60,-99.99,,,-99.99,,2013-01-10 08:52:00,
2013-01-10 03:02:00,45.0,35.0,30.22,ESE,115,15.0,27.0,69,-99.99,,,-99.99,,2013-01-10 09:02:00,
2013-01-10 03:12:00,44.0,36.0,30.21,ESE,115,19.0,25.0,72,-99.99,,,-99.99,,2013-01-10 09:12:00,
2013-01-10 03:22:00,44.0,36.0,30.21,ESE,115,19.0,25.0,72,-99.99,,,-99.99,,2013-01-10 09:22:00,
2013-01-10 03:32:00,44.0,36.0,30.21,East,100,18.0,24.0,75,-99.99,,,-99.99,,2013-01-10 09:32:00,
2013-01-10 03:42:00,44.0,37.0,30.20,East,100,13.0,22.0,76,-99.99,,,-99.99,,2013-01-10 09:42:00,
2013-01-10 03:52:00,44.0,37.0,30.20,East,100,13.0,22.0,76,-99.99,,,-99.99,,2013-01-10 09:52:00,
2013-01-10 04:03:00,43.0,37.0,30.18,ESE,110,20.0,28.0,79,-99.99,,,-99.99,,2013-01-10 10:03:00,
2013-01-10 04:12:00,42.0,37.0,30.17,ESE,105,15.0,26.0,82,-99.99,,,-99.99,,2013-01-10 10:12:00,
2013-01-10 04:22:00,42.0,37.0,30.17,ESE,105,15.0,26.0,82,-99.99,,,-99.99,,2013-01-10 10:22:00,
2013-01-10 04:32:00,42.0,38.0,30.15,ESE,110,13.0,23.0,83,-99.99,,,-99.99,,2013-01-10 10:32:00,
2013-01-10 04:42:00,42.0,38.0,30.15,ESE,105,16.0,22.0,83,-99.99,,,-99.99,,2013-01-10 10:42:00,
2013-01-10 04:52:00,42.0,38.0,30.15,ESE,105,16.0,22.0,83,-99.99,,,-99.99,,2013-01-10 10:52:00,
2013-01-10 05:02:00,42.0,38.0,30.15,East,100,17.0,22.0,84,-99.99,,,-99.99,,2013-01-10 11:02:00,
2013-01-10 05:12:00,42.0,38.0,30.13,ESE,110,13.0,21.0,84,-99.99,,,-99.99,,2013-01-10 11:12:00,
2013-01-10 05:22:00,42.0,38.0,30.13,ESE,110,13.0,21.0,84,-99.99,,,-99.99,,2013-01-10 11:22:00,
2013-01-10 05:32:00,42.0,38.0,30.11,East,100,18.0,23.0,86,-99.99,,,-99.99,,2013-01-10 11:32:00,
2013-01-10 05:43:00,42.0,39.0,30.11,ESE,105,15.0,24.0,87,-99.99,,,-99.99,,2013-01-10 11:43:00,
2013-01-10 05:52:00,42.0,39.0,30.11,ESE,105,15.0,24.0,87,-99.99,,,-99.99,,2013-01-10 11:52:00,
2013-01-10 06:03:00,42.0,39.0,30.10,ESE,105,18.0,25.0,87,-99.99,,,-99.99,,2013-01-10 12:03:00,
2013-01-10 06:12:00,42.0,39.0,30.11,ESE,105,15.0,22.0,87,-99.99,,,-99.99,,2013-01-10 12:12:00,
2013-01-10 06:22:00,42.0,39.0,30.11,ESE,105,15.0,22.0,87,-99.99,,,-99.99,,2013-01-10 12:22:00,
2013-01-10 06:33:00,43.0,39.0,30.11,ESE,105,12.0,19.0,88,-99.99,,,-99.99,,2013-01-10 12:33:00,
2013-01-10 06:43:00,43.0,40.0,30.10,East,100,14.0,21.0,89,-99.99,,,-99.99,,2013-01-10 12:43:00,
2013-01-10 06:52:00,43.0,40.0,30.10,East,100,14.0,21.0,89,-99.99,,,-99.99,,2013-01-10 12:52:00,
2013-01-10 07:02:00,43.0,40.0,30.10,ESE,105,13.0,17.0,89,-99.99,,,-99.99,,2013-01-10 13:02:00,
2013-01-10 07:12:00,43.0,40.0,30.10,ESE,105,11.0,21.0,89,-99.99,,,-99.99,,2013-01-10 13:12:00,
2013-01-10 07:22:00,43.0,40.0,30.10,ESE,105,11.0,21.0,89,-99.99,,,-99.99,,2013-01-10 13:22:00,
2013-01-10 07:32:00,44.0,40.0,30.09,ESE,110,11.0,17.0,88,-99.99,,,-99.99,,2013-01-10 13:32:00,
2013-01-10 07:42:00,44.0,40.0,30.09,ESE,110,10.0,16.0,88,-99.99,,,-99.99,,2013-01-10 13:42:00,
2013-01-10 07:52:00,44.0,40.0,30.09,ESE,110,10.0,16.0,88,-99.99,,,-99.99,,2013-01-10 13:52:00,
2013-01-10 08:02:00,44.0,41.0,30.08,ESE,120,10.0,20.0,88,-99.99,,,-99.99,,2013-01-10 14:02:00,
2013-01-10 08:12:00,44.0,41.0,30.08,East,100,15.0,19.0,88,-99.99,,,-99.99,,2013-01-10 14:12:00,
2013-01-10 08:22:00,44.0,41.0,30.08,East,100,15.0,19.0,88,-99.99,,,-99.99,,2013-01-10 14:22:00,
2013-01-10 08:33:00,45.0,41.0,30.08,ESE,110,17.0,22.0,88,-99.99,,,-99.99,,2013-01-10 14:33:00,
2013-01-10 08:43:00,45.0,42.0,30.07,ESE,110,20.0,26.0,89,-99.99,,,-99.99,,2013-01-10 14:43:00,
2013-01-10 08:53:00,45.0,42.0,30.07,ESE,110,20.0,26.0,89,-99.99,,,-99.99,,2013-01-10 14:53:00,
2013-01-10 09:03:00,45.0,42.0,30.06,ESE,110,17.0,26.0,89,-99.99,,,-99.99,,2013-01-10 15:03:00,
2013-01-10 09:12:00,45.0,43.0,30.06,East,90,13.0,21.0,90,-99.99,,,-99.99,,2013-01-10 15:12:00,
2013-01-10 09:23:00,45.0,43.0,30.06,East,90,13.0,21.0,90,-99.99,,,-99.99,,2013-01-10 15:23:00,
2013-01-10 09:33:00,46.0,43.0,30.05,SE,125,15.0,22.0,90,-99.99,,,-99.99,,2013-01-10 15:33:00,
2013-01-10 09:43:00,46.0,43.0,30.04,ESE,105,14.0,26.0,90,-99.99,,,-99.99,,2013-01-10 15:43:00,
2013-01-10 09:53:00,46.0,43.0,30.04,ESE,105,14.0,26.0,90,-99.99,,,-99.99,,2013-01-10 15:53:00,
2013-01-10 10:03:00,47.0,44.0,30.05,ESE,110,13.0,23.0,90,-99.99,,,-99.99,,2013-01-10 16:03:00,
2013-01-10 10:13:00,47.0,44.0,30.05,ESE,110,9.0,19.0,90,-99.99,,,-99.99,,2013-01-10 16:13:00,
2013-01-10 10:23:00,47.0,44.0,30.05,ESE,110,9.0,19.0,90,-99.99,,,-99.99,,2013-01-10 16:23:00,
2013-01-10 10:33:00,47.0,44.0,30.05,SE,140,12.0,17.0,90,-99.99,,,-99.99,,2013-01-10 16:33:00,
2013-01-10 10:43:00,47.0,44.0,30.04,SE,140,12.0,19.0,90,-99.99,,,-99.99,,2013-01-10 16:43:00,
2013-01-10 10:52:00,47.0,44.0,30.04,SE,140,12.0,19.0,90,-99.99,,,-99.99,,2013-01-10 16:52:00,
2013-01-10 11:03:00,47.0,45.0,30.02,ESE,120,8.0,15.0,90,-99.99,,,-99.99,,2013-01-10 17:03:00,
2013-01-10 11:12:00,48.0,45.0,30.01,East,95,9.0,21.0,91,-99.99,,,-99.99,,2013-01-10 17:12:00,
2013-01-10 11:22:00,48.0,45.0,30.01,East,95,9.0,21.0,91,-99.99,,,-99.99,,2013-01-10 17:22:00,
2013-01-10 11:33:00,48.0,46.0,30.00,ESE,115,14.0,21.0,91,-99.99,,,-99.99,,2013-01-10 17:33:00,
2013-01-10 11:42:00,49.0,46.0,30.00,SE,145,11.0,23.0,91,-99.99,,,-99.99,,2013-01-10 17:42:00,
2013-01-10 11:53:00,49.0,47.0,29.97,SE,125,11.0,20.0,91,-99.99,,,-99.99,,2013-01-10 17:53:00,
2013-01-10 12:03:00,49.0,47.0,29.97,SE,125,11.0,20.0,91,-99.99,,,-99.99,,2013-01-10 18:03:00,
2013-01-10 12:12:00,50.0,47.0,29.97,ESE,120,10.0,22.0,90,-99.99,,,-99.99,,2013-01-10 18:12:00,
2013-01-10 12:23:00,50.0,47.0,29.97,ESE,120,10.0,22.0,90,-99.99,,,-99.99,,2013-01-10 18:23:00,
2013-01-10 12:33:00,51.0,48.0,29.95,SE,135,9.0,19.0,89,-99.99,,,-99.99,,2013-01-10 18:33:00,
2013-01-10 12:43:00,51.0,48.0,29.94,SSE,150,12.0,22.0,88,-99.99,,,-99.99,,2013-01-10 18:43:00,
2013-01-10 12:52:00,51.0,48.0,29.94,SSE,150,12.0,22.0,88,-99.99,,,-99.99,,2013-01-10 18:52:00,
2013-01-10 13:03:00,52.0,48.0,29.92,SE,135,12.0,24.0,87,-99.99,,,-99.99,,2013-01-10 19:03:00,
2013-01-10 13:13:00,52.0,49.0,29.91,ESE,120,11.0,18.0,87,-99.99,,,-99.99,,2013-01-10 19:13:00,
2013-01-10 13:23:00,52.0,49.0,29.91,ESE,120,11.0,18.0,87,-99.99,,,-99.99,,2013-01-10 19:23:00,
2013-01-10 13:33:00,53.0,49.0,29.90,SE,130,13.0,22.0,88,-99.99,,,-99.99,,2013-01-10 19:33:00,
2013-01-10 13:43:00,53.0,49.0,29.90,SE,145,14.0,19.0,88,-99.99,,,-99.99,,2013-01-10 19:43:00,
2013-01-10 13:53:00,53.0,49.0,29.90,SE,145,14.0,19.0,88,-99.99,,,-99.99,,2013-01-10 19:53:00,
2013-01-10 14:03:00,53.0,50.0,29.89,SE,145,12.0,26.0,88,-99.99,,,-99.99,,2013-01-10 20:03:00,
2013-01-10 14:13:00,54.0,50.0,29.88,SSE,155,10.0,19.0,88,-99.99,,,-99.99,,2013-01-10 20:13:00,
2013-01-10 14:24:00,54.0,50.0,29.88,SSE,155,10.0,19.0,88,-99.99,,,-99.99,,2013-01-10 20:24:00,
2013-01-10 14:33:00,54.0,50.0,29.86,SE,140,13.0,21.0,86,-99.99,,,-99.99,,2013-01-10 20:33:00,
2013-01-10 14:43:00,54.0,50.0,29.85,SSE,150,14.0,20.0,86,-99.99,,,-99.99,,2013-01-10 20:43:00,
2013-01-10 14:53:00,54.0,50.0,29.85,SSE,150,14.0,20.0,86,-99.99,,,-99.99,,2013-01-10 20:53:00,
2013-01-10 15:03:00,54.0,50.0,29.86,ESE,110,7.0,18.0,87,-99.99,,,-99.99,,2013-01-10 21:03:00,
2013-01-10 15:12:00,54.0,50.0,29.85,SE,135,9.0,20.0,87,-99.99,,,-99.99,,2013-01-10 21:12:00,
2013-01-10 15:23:00,54.0,50.0,29.85,SE,135,9.0,20.0,87,-99.99,,,-99.99,,2013-01-10 21:23:00,
2013-01-10 15:33:00,54.0,50.0,29.85,SE,145,9.0,12.0,88,-99.99,,,-99.99,,2013-01-10 21:33:00,
2013-01-10 15:42:00,54.0,51.0,29.85,SE,130,7.0,10.0,89,-99.99,,,-99.99,,2013-01-10 21:42:00,
2013-01-10 15:53:00,54.0,51.0,29.85,SE,130,7.0,10.0,89,-99.99,,,-99.99,,2013-01-10 21:53:00,
2013-01-10 16:03:00,53.0,50.0,29.84,ESE,105,7.0,12.0,90,-99.99,,,-99.99,,2013-01-10 22:03:00,
2013-01-10 16:12:00,53.0,50.0,29.84,ESE,110,7.0,14.0,90,-99.99,,,-99.99,,2013-01-10 22:12:00,
2013-01-10 16:33:00,53.0,50.0,29.84,ESE,105,7.0,13.0,91,-99.99,,,-99.99,,2013-01-10 22:33:00,
2013-01-10 17:03:00,53.0,50.0,29.85,ESE,110,8.0,13.0,90,-99.99,,,-99.99,,2013-01-10 23:03:00,
2013-01-10 17:12:00,52.0,49.0,29.84,ESE,115,9.0,13.0,90,-99.99,,,-99.99,,2013-01-10 23:12:00,
2013-01-10 17:23:00,52.0,49.0,29.84,ESE,115,9.0,13.0,90,-99.99,,,-99.99,,2013-01-10 23:23:00,
2013-01-10 17:33:00,52.0,49.0,29.83,ESE,110,8.0,14.0,90,-99.99,,,-99.99,,2013-01-10 23:33:00,
2013-01-10 17:43:00,52.0,49.0,29.83,East,100,8.0,14.0,90,-99.99,,,-99.99,,2013-01-10 23:43:00,
2013-01-10 17:53:00,52.0,49.0,29.83,East,100,8.0,14.0,90,-99.99,,,-99.99,,2013-01-10 23:53:00,
2013-01-10 18:00:00,52.0,50.0,29.80,ESE,105,7.0,12.0,91,-99.99,,,-99.99,,2013-01-11 00:00:00,
2013-01-10 18:03:00,52.0,49.0,29.81,East,100,9.0,12.0,91,-99.99,,,-99.99,,2013-01-11 00:03:00,
2013-01-10 18:12:00,52.0,49.0,29.81,ESE,105,9.0,13.0,91,-99.99,,,-99.99,,2013-01-11 00:12:00,
2013-01-10 18:23:00,52.0,49.0,29.81,ESE,105,9.0,13.0,91,-99.99,,,-99.99,,2013-01-11 00:23:00,
2013-01-10 18:33:00,52.0,49.0,29.81,East,100,9.0,13.0,91,-99.99,,,-99.99,,2013-01-11 00:33:00,
2013-01-10 18:42:00,52.0,50.0,29.80,ESE,105,7.0,12.0,91,-99.99,,,-99.99,,2013-01-11 00:42:00,
2013-01-10 18:52:00,52.0,50.0,29.80,ESE,105,7.0,12.0,91,-99.99,,,-99.99,,2013-01-11 00:52:00,
2013-01-10 19:13:00,53.0,50.0,29.79,SE,125,6.0,12.0,91,-99.99,,,-99.99,,2013-01-11 01:13:00,
2013-01-10 19:23:00,53.0,50.0,29.79,SE,125,6.0,12.0,91,-99.99,,,-99.99,,2013-01-11 01:23:00,
2013-01-10 19:33:00,52.0,49.0,29.86,SW,215,9.0,20.0,91,-99.99,,,-99.99,,2013-01-11 01:33:00,
2013-01-10 19:43:00,52.0,49.0,29.85,SW,220,7.0,14.0,91,-99.99,,,-99.99,,2013-01-11 01:43:00,
2013-01-10 19:52:00,52.0,49.0,29.85,SW,220,7.0,14.0,91,-99.99,,,-99.99,,2013-01-11 01:52:00,
2013-01-10 20:03:00,51.0,49.0,29.82,WSW,250,5.0,9.0,90,-99.99,,,-99.99,,2013-01-11 02:03:00,
2013-01-10 20:13:00,51.0,49.0,29.83,SSW,195,2.0,8.0,90,-99.99,,,-99.99,,2013-01-11 02:13:00,
2013-01-10 20:23:00,51.0,49.0,29.83,SSW,195,2.0,8.0,90,-99.99,,,-99.99,,2013-01-11 02:23:00,
2013-01-10 20:33:00,51.0,48.0,29.83,East,100,3.0,5.0,90,-99.99,,,-99.99,,2013-01-11 02:33:00,
2013-01-10 20:43:00,51.0,48.0,29.83,ESE,120,4.0,5.0,90,-99.99,,,-99.99,,2013-01-11 02:43:00,
2013-01-10 20:53:00,51.0,48.0,29.83,ESE,120,4.0,5.0,90,-99.99,,,-99.99,,2013-01-11 02:53:00,
2013-01-10 21:00:00,50.0,47.0,29.81,SSE,155,6.0,8.0,91,-99.99,,,-99.99,,2013-01-11 03:00:00,
2013-01-10 21:02:00,50.0,47.0,29.82,ESE,115,4.0,7.0,91,-99.99,,,-99.99,,2013-01-11 03:02:00,
2013-01-10 21:12:00,50.0,47.0,29.81,ESE,115,7.0,10.0,91,-99.99,,,-99.99,,2013-01-11 03:12:00,
2013-01-10 21:23:00,50.0,47.0,29.81,ESE,115,7.0,10.0,91,-99.99,,,-99.99,,2013-01-11 03:23:00,
2013-01-10 21:33:00,50.0,47.0,29.81,SSE,160,5.0,8.0,91,-99.99,,,-99.99,,2013-01-11 03:33:00,
2013-01-10 21:43:00,50.0,47.0,29.81,SSE,155,6.0,8.0,91,-99.99,,,-99.99,,2013-01-11 03:43:00,
2013-01-10 21:53:00,50.0,47.0,29.81,SSE,155,6.0,8.0,91,-99.99,,,-99.99,,2013-01-11 03:53:00,
2013-01-10 22:12:00,50.0,47.0,29.81,SSE,165,6.0,11.0,91,-99.99,,,-99.99,,2013-01-11 04:12:00,
2013-01-10 22:22:00,50.0,47.0,29.81,SSE,165,6.0,11.0,91,-99.99,,,-99.99,,2013-01-11 04:22:00,
2013-01-10 22:33:00,50.0,47.0,29.82,SSE,165,6.0,10.0,92,-99.99,,,-99.99,,2013-01-11 04:33:00,
2013-01-10 22:43:00,50.0,48.0,29.83,South,180,8.0,13.0,92,-99.99,,,-99.99,,2013-01-11 04:43:00,
2013-01-10 22:52:00,50.0,48.0,29.83,South,180,8.0,13.0,92,-99.99,,,-99.99,,2013-01-11 04:52:00,
2013-01-10 23:03:00,50.0,48.0,29.82,SSW,195,7.0,11.0,92,-99.99,,,-99.99,,2013-01-11 05:03:00,
2013-01-10 23:13:00,50.0,48.0,29.82,SSW,200,9.0,13.0,91,-99.99,,,-99.99,,2013-01-11 05:13:00,
2013-01-10 23:22:00,50.0,48.0,29.82,SSW,200,9.0,13.0,91,-99.99,,,-99.99,,2013-01-11 05:22:00,
2013-01-10 23:33:00,51.0,46.0,29.81,SSW,205,12.0,20.0,85,-99.99,,,-99.99,,2013-01-11 05:33:00,
2013-01-10 23:43:00,51.0,46.0,29.81,South,190,9.0,15.0,84,-99.99,,,-99.99,,2013-01-11 05:43:00,
2013-01-10 23:52:00,51.0,46.0,29.81,South,190,9.0,15.0,84,-99.99,,,-99.99,,2013-01-11 05:52:00,